Regional Weather Roundup
Issued by NWS Albany, NY

Home | Current Version | Previous Version | Text Only | Print | Product List | Glossary On
Versions: 1 2 3 4 5 6 7 8 9 10 11 12 13 14 15 16 17 18 19 20 21 22 23 24 25 26
000
ASUS41 KALY 290810
RWRALY

NEW YORK STATE HOURLY WEATHER ROUNDUP
NATIONAL WEATHER SERVICE ALBANY NY
400 AM EDT THU JUN 29 2017

NOTE: "FAIR" INDICATES FEW OR NO CLOUDS BELOW 12,000 FEET WITH NO
SIGNIFICANT WEATHER AND/OR NO OBSTRUCTIONS TO VISIBILITY.

NYZ032-033-038>043-046>054-057>066-NYZ062>081-082-084-290900-
EAST


CITY           SKY/WX    TMP DP  RH WIND       PRES   REMARKS
ALBANY         CLOUDY    62  53  72 S6        30.09R
GLENS FALLS    MOCLDY    52  51  97 CALM      30.08R
POUGHKEEPSIE   MOCLDY    58  54  86 CALM      30.12R
NEWBURGH       CLEAR     63  54  72 W6        30.15R
MONTGOMERY     CLOUDY    61  54  77 S3        30.13R
WHITE PLAINS   PTCLDY    66  50  56 W3        30.15R
ISLIP          PTCLDY    63  55  75 SW6       30.15R
NEW YORK CITY  MOCLDY    71  56  58 SW12G17   30.14R
CENTRAL PARK   MOCLDY    69  55  60 VRB3      30.18R
$$

NYZ005>009-017-018-044>046-055-056-290900-
CENTRAL


CITY           SKY/WX    TMP DP  RH WIND       PRES   REMARKS
FULTON         CLOUDY    62  56  80 SW5       30.06R
SYRACUSE       MOCLDY    63  55  75 S6        30.05S
ROME           CLOUDY    59  55  87 E5        30.08R
ELMIRA         CLOUDY    58  56  93 CALM      30.09S
BINGHAMTON     CLOUDY    60  49  66 S5        30.12S
MONTICELLO     CLOUDY    57  54  88 CALM      30.17S
$$

NYZ026>034-041>043-087-290900-
NORTH


CITY           SKY/WX    TMP DP  RH WIND       PRES   REMARKS
WATERTOWN      CLOUDY    63  53  70 S5        30.03R
FORT DRUM      NOT AVBL
OGDENSBURG     FAIR      58  54  84 S5        30.02S
MASSENA        CLOUDY    58  53  84 SW7       30.01S
SARANAC LAKE   CLOUDY    45  44  97 SW3       30.07R
PLATTSBURGH    CLOUDY    54  52  93 CALM      30.03R
$$

NYZ001>004-010>016-019>021-085-290900-
WEST


CITY           SKY/WX    TMP DP  RH WIND       PRES   REMARKS
NIAGARA FALLS  LGT RAIN  64  58  80 E5        30.01F
BUFFALO        LGT RAIN  62  56  80 SE5       30.02F
DUNKIRK        CLOUDY    66  53  63 S10       30.02S
JAMESTOWN      CLOUDY    59  50  72 S5        30.07R
WELLSVILLE     CLOUDY    62  49  62 S6        30.11S
ROCHESTER      LGT RAIN  61  56  83 N6        30.06F
PENN YAN       PTCLDY    64  51  62 VRB5      30.08R
$$

             KEY
       WCI = WIND CHILL INDEX
       VSB = VISIBILITY
       HX  = HEAT INDEX
$$




USA.gov is the U.S. government's official web portal to all federal, state and local government web resources and services.